Flag for Macedonia, Republic of Weather past 2 weeks in Skopje, Macedonia, Republic of

Now
63 °F

Clear.


Feels Like: 63 °F
Forecast: 58 / 98 °F
Wind: No wind

Location: Skopje-Petrovec

Current Time: Aug 31, 2015 at 5:03:37 AM

Latest Report: Aug 31, 2015 at 4:30 AM


Visibility: 10 mi

Pressure: 30.18 "Hg

Humidity: 68%

Dew point: 52 °F

Location of SkopjeLocation

Historic Weather in Skopje — Graph

°F

Skopje temperature yesterday

Maximum temperature yesterday: 95 °F (at 4:00 PM)
Minimum temperature yesterday: 57 °F (at 6:00 AM)
Average temperature yesterday: 78 °F

Past Weeks' High & Low Weather Summary

 TemperatureHumidityPressure
High97 °F (Aug 16, 3:00 PM)94% (Aug 17, 3:00 AM)30.27 "Hg (Aug 17, 3:00 AM)
Low55 °F (Aug 18, 5:30 AM)16% (Aug 28, 3:30 PM)29.71 "Hg (Aug 16, 3:30 PM)
Average75 °F54%30.02 "Hg
* Reported Aug 16 4:00 AM — Aug 31 4:00 AM, Skopje, Weather by CustomWeather, © 2015

Note: Actual official high and low records may vary slightly from our data, if they occured in-between our weather recording intervals... More about our weather records

Advertising

Skopje weather history for previous 24 hours

 ConditionsComfort  
Time TempWeatherWind HumidityBarometerVisibility
4:00 AM
Mon, Aug 31
63 °FClear.No wind68%30.18 "Hg10 mi
3:30 AM63 °FClear.No wind68%30.18 "Hg10 mi
3:00 AM64 °FClear.No wind64%30.18 "Hg10 mi
2:30 AM64 °FClear.No wind64%30.18 "Hg10 mi
2:00 AM66 °FClear.No wind60%30.18 "Hg10 mi
1:30 AM66 °FClear.2 mph60%30.18 "Hg10 mi
1:00 AM66 °FClear.2 mph60%30.18 "Hg10 mi
12:30 AM68 °FClear.2 mph56%30.18 "Hg10 mi
12:00 AM68 °FClear.2 mph56%30.18 "Hg10 mi
11:30 PM
Sun, Aug 30
68 °FClear.No wind56%30.15 "Hg10 mi
11:00 PM70 °FClear.No wind53%30.15 "Hg10 mi
10:30 PM72 °FClear.2 mph47%30.15 "Hg10 mi
10:00 PM75 °FClear.5 mph39%30.15 "Hg10 mi
9:30 PM77 °FClear.2 mph36%30.15 "Hg10 mi
9:00 PM79 °FClear.3 mph34%30.15 "Hg10 mi
8:30 PM79 °FClear.2 mph34%30.15 "Hg10 mi
8:00 PM82 °FSunny.3 mph30%30.12 "Hg10 mi
7:30 PM84 °FSunny.No wind29%30.12 "Hg10 mi
7:00 PM90 °FSunny.2 mph26%30.12 "Hg10 mi
6:30 PM91 °FSunny.2 mph21%30.12 "Hg10 mi
6:00 PM93 °FSunny.3 mph19%30.12 "Hg10 mi
5:30 PM93 °FSunny.5 mph19%30.12 "Hg10 mi
5:00 PM93 °FPassing clouds.8 mph17%30.12 "HgN/A
4:30 PM95 °FPassing clouds.8 mph16%30.15 "HgN/A
4:00 PM95 °FPassing clouds.7 mph16%30.15 "HgN/A
3:30 PM93 °FPassing clouds.8 mph19%30.15 "HgN/A
3:00 PM93 °FPassing clouds.6 mph19%30.18 "HgN/A
2:30 PM93 °FPassing clouds.8 mph19%30.18 "HgN/A
2:00 PM93 °FSunny.6 mph20%30.18 "Hg10 mi
1:30 PM93 °FPassing clouds.8 mph20%30.18 "HgN/A
1:00 PM91 °FSunny.2 mph21%30.21 "Hg10 mi
12:30 PM90 °FPassing clouds.6 mph24%30.21 "HgN/A
12:00 PM90 °FSunny.No wind26%30.24 "Hg10 mi
11:30 AM88 °FSunny.No wind29%30.24 "Hg10 mi
11:00 AM84 °FSunny.No wind33%30.24 "Hg10 mi
10:30 AM82 °FSunny.No wind35%30.24 "Hg10 mi
10:00 AM79 °FSunny.No wind39%30.24 "Hg10 mi
9:30 AM75 °FSunny.No wind47%30.24 "Hg10 mi
9:00 AM73 °FSunny.No wind47%30.24 "Hg10 mi
8:30 AM70 °FSunny.No wind57%30.27 "Hg10 mi
8:00 AM68 °FSunny.No wind60%30.27 "Hg10 mi
7:30 AM64 °FSunny.1 mph68%30.24 "Hg10 mi
7:00 AM63 °FSunny.No wind68%30.24 "Hg10 mi
6:00 AM57 °FClear.No wind77%30.24 "Hg10 mi
5:00 AM61 °FClear.1 mph72%30.21 "Hg10 mi
Weather by CustomWeather, © 2015

See weather overviewHow to use our weather pages